Cahokia, IL

9:46 PM CST on December 12, 2017 (GMT -0600)
Saint Louis Downtown

Weather History for KCPS - October, 2013

Change the Weather History Date:

Tuesday, October 8, 2013

  Actual Average Record
Temperature  
Mean Temperature 60 °F -  
Max Temperature 75 °F 67 °F 89 °F (2007)
Min Temperature 44 °F 51 °F 32 °F (2000)
Degree Days  
Heating Degree Days 6    
Growing Degree Days 10 (Base 50)    
Moisture  
Dew Point 46 °F    
Average Humidity 72    
Maximum Humidity 97    
Minimum Humidity 34    
Precipitation  
Precipitation 0.00 in - - ()
Sea Level Pressure  
Sea Level Pressure 30.17 in    
Wind  
Wind Speed 2 mph (SE)    
Max Wind Speed 12 mph    
Max Gust Speed 17 mph    
Visibility 10 miles    
Events      
Averages and records for this station are not official NWS values.
T = Trace of Precipitation, MM = Missing Value Source: NWS Daily Summary

Daily Weather History Graph

Daily Weather History Graph

Search for Another Location

Airport or City:

Trip Planner

Search our weather history database for the weather conditions in past years. The results will help you decide how hot, cold, wet, or windy it might be!

Date:

Astronomy

Oct. 08, 2013 Rise Set
Actual Time 7:03 AM CDT 6:32 PM CDT
Civil Twilight 6:36 AM CDT 6:58 PM CDT
Nautical Twilight 6:05 AM CDT 7:29 PM CDT
Astronomical Twilight 5:35 AM CDT 8:00 PM CDT
Moon 10:54 AM CDT (10/8) 9:11 PM CDT (10/8)
Length of Visible Light 12h 22m
Length of Day
11h 29m
Waxing Crescent, 16% of the Moon is Illuminated
Oct 8
Waxing Crescent
Oct 11
First Quarter
Oct 18
Full
Oct 26
Last Quarter
Nov 3
New

Hourly Weather History & Observations

Time (CDT) Temp. Dew Point Humidity Pressure Visibility Wind Dir Wind Speed Gust Speed Precip Events Conditions
12:53 AM 46.9 °F 44.1 °F 90% 30.16 in 10.0 mi Calm Calm - N/A   Clear
1:53 AM 46.0 °F 44.1 °F 93% 30.17 in 10.0 mi Calm Calm - N/A   Clear
2:53 AM 45.0 °F 44.1 °F 97% 30.17 in 10.0 mi Calm Calm - N/A   Clear
3:53 AM 45.0 °F 43.0 °F 93% 30.17 in 10.0 mi Calm Calm - N/A   Clear
4:53 AM 44.1 °F 43.0 °F 96% 30.17 in 10.0 mi Calm Calm - N/A   Clear
5:53 AM 44.1 °F 42.1 °F 93% 30.18 in 10.0 mi Calm Calm - N/A   Clear
6:53 AM 44.1 °F 43.0 °F 96% 30.19 in 10.0 mi Calm Calm - N/A   Clear
7:53 AM 46.0 °F 45.0 °F 96% 30.20 in 10.0 mi Calm Calm - N/A   Clear
8:53 AM 55.0 °F 50.0 °F 83% 30.21 in 10.0 mi Calm Calm - N/A   Clear
9:53 AM 61.0 °F 51.1 °F 70% 30.22 in 10.0 mi Calm Calm - N/A   Clear
10:53 AM 68.0 °F 51.1 °F 55% 30.21 in 10.0 mi Variable 3.5 mph - N/A   Clear
11:53 AM 72.0 °F 45.0 °F 38% 30.20 in 10.0 mi SE 6.9 mph - N/A   Clear
12:53 PM 73.0 °F 45.0 °F 37% 30.18 in 10.0 mi SSE 9.2 mph - N/A   Clear
1:53 PM 75.0 °F 45.0 °F 34% 30.15 in 10.0 mi SE 10.4 mph - N/A   Clear
2:53 PM 73.9 °F 45.0 °F 35% 30.14 in 10.0 mi ESE 8.1 mph - N/A   Clear
3:53 PM 73.9 °F 45.0 °F 35% 30.14 in 10.0 mi SE 11.5 mph 17.3 mph N/A   Clear
4:53 PM 73.0 °F 45.0 °F 37% 30.13 in 10.0 mi SE 8.1 mph - N/A   Clear
5:53 PM 70.0 °F 45.0 °F 41% 30.13 in 10.0 mi ESE 5.8 mph - N/A   Clear
6:53 PM 60.1 °F 46.9 °F 62% 30.14 in 10.0 mi Calm Calm - N/A   Clear
7:53 PM 55.9 °F 48.0 °F 75% 30.14 in 10.0 mi Calm Calm - N/A   Clear
8:53 PM 52.0 °F 48.0 °F 86% 30.15 in 10.0 mi Calm Calm - N/A   Clear
9:53 PM 51.1 °F 46.9 °F 86% 30.15 in 10.0 mi Calm Calm - N/A   Clear
10:53 PM 48.0 °F 46.0 °F 93% 30.15 in 10.0 mi Calm Calm - N/A   Clear
11:53 PM 46.9 °F 46.0 °F 97% 30.14 in 10.0 mi Calm Calm - N/A   Clear